This demonstration page uses our WeatherBlox Daily Observations layout. Learn more.

Left ArrowRight Arrow

39.08367, -84.50855

Hourly Observations for July 1, 2020

Temp ( °F °C ) Dew Point ( °F °C ) Humidity (%) Winds ( mph kmh ) Pressure ( in mb ) Visibility ( mi km ) Precip ( " mm )
12:06 am 00:06 Mostly Clear with Mist and Fog 70 21.1 69 20.6 97 97 Calm 29.91 1013 3 5 0.00 0.00
12:09 am 00:09 Mostly Clear with Mist and Fog 70 21.1 69 20.6 97 97 NE 3 6 29.91 1013 2 2 0.00 0.00
12:12 am 00:12 Mostly Cloudy with Mist and Fog 70 21.1 69 20.6 97 97 NNE 3 6 29.91 1013 1 1 0.00 0.00
12:20 am 00:20 Partly Cloudy with Mist and Fog 70 21.1 69 20.6 97 97 NNE 3 6 29.91 1013 2 2 0.00 0.00
12:28 am 00:28 Partly Cloudy with Mist and Fog 71 21.7 70 21.1 96 96 Calm 29.91 1013 5 8 0.00 0.00
12:32 am 00:32 Partly Cloudy with Mist and Fog 70 21.1 69 20.6 97 97 Calm 29.90 1012 1 2 0.00 0.00
12:34 am 00:34 Mostly Cloudy with Fog 70 21.1 69 20.6 97 97 Calm 29.90 1012 1 1 0.00 0.00
12:41 am 00:41 Mostly Cloudy with Fog 68 20 67 19.4 96 96 Calm 29.90 1012 0 0 0.00 0.00
12:53 am 00:53 Mostly Cloudy with Fog 69 20.6 68 20 96 96 Calm 29.89 1012 0 0 0.00 0.00
1:53 am 01:53 Mostly Cloudy with Fog 71 21.7 70 21.1 96 96 Calm 29.89 1012 0 0 0.00 0.00
2:53 am 02:53 Mostly Cloudy with Fog 70 21.1 69 20.6 97 97 Calm 29.88 1012 0 0 0.00 0.00
3:53 am 03:53 Mostly Cloudy with Fog 70 21.1 69 20.6 97 97 Calm 29.89 1012 1 1 0.00 0.00
4:26 am 04:26 Mostly Cloudy with Fog 69 20.6 69 20.6 100 100 Calm 29.89 1012 0 0 0.00 0.00
4:53 am 04:53 Mostly Cloudy with Fog 69 20.6 69 20.6 100 100 ENE 3 6 29.89 1012 0 0 0.00 0.00
5:53 am 05:53 Mostly Cloudy with Fog 69 20.6 69 20.6 100 100 NNE 5 7 29.90 1013 1 1 0.00 0.00
6:12 am 06:12 Cloudy with Mist and Fog 69 20.6 68 20 96 96 Calm 29.91 1013 1 2 0.00 0.00
6:23 am 06:23 Mostly Cloudy with Fog 69 20.6 68 20 96 96 E 3 6 29.91 1013 1 1 0.00 0.00
6:36 am 06:36 Cloudy with Mist and Fog 69 20.6 68 20 96 96 N 3 6 29.92 1013 2 2 0.00 0.00
6:53 am 06:53 Mostly Cloudy with Mist and Fog 69 20.6 68 20 96 96 S 5 7 29.92 1013 2 2 0.00 0.00
7:26 am 07:26 Cloudy with Mist and Fog 70 21.1 69 20.6 97 97 Calm 29.92 1013 3 5 0.00 0.00
7:53 am 07:53 Mostly Cloudy with Mist and Fog 71 21.7 69 20.6 94 94 Calm 29.92 1013 3 5 0.00 0.00
8:53 am 08:53 Partly Cloudy 74 23.3 71 21.7 91 91 NE 5 7 29.92 1013 7 11 0.00 0.00
9:53 am 09:53 Sunny 79 26.1 71 21.7 77 77 Calm 29.92 1013 10 16 0.00 0.00
10:53 am 10:53 Sunny 82 27.8 71 21.7 69 69 NNE 5 7 29.91 1013 10 16 0.00 0.00
11:53 am 11:53 Partly Cloudy 85 29.4 69 20.6 59 59 Calm 29.92 1013 10 16 0.00 0.00
12:53 pm 12:53 Sunny 86 30 71 21.7 61 61 VRB 5 7 29.92 1013 10 16 0.00 0.00
1:53 pm 13:53 Partly Cloudy 86 30 69 20.6 57 57 ENE 5 7 29.90 1013 10 16 0.00 0.00
2:53 pm 14:53 Sunny 88 31.1 69 20.6 54 54 NE 6 9 29.88 1012 10 16 0.00 0.00
3:53 pm 15:53 Partly Cloudy 90 32.2 66 18.9 45 45 Calm 29.86 1011 10 16 0.00 0.00
4:53 pm 16:53 Partly Cloudy 91 32.8 67 19.4 45 45 VRB 6 9 29.85 1011 10 16 0.00 0.00
5:53 pm 17:53 Partly Cloudy 88 31.1 69 20.6 54 54 NE 9 15 29.84 1011 10 16 0.00 0.00
6:53 pm 18:53 Mostly Sunny 86 30 69 20.6 57 57 NE 8 13 29.84 1011 10 16 0.00 0.00
7:53 pm 19:53 Mostly Sunny 85 29.4 69 20.6 59 59 ENE 5 7 29.86 1011 10 16 0.00 0.00
8:53 pm 20:53 Sunny 81 27.2 69 20.6 67 67 NNE 5 7 29.88 1012 10 16 0.00 0.00
9:53 pm 21:53 Partly Cloudy 74 23.3 70 21.1 88 88 Calm 29.89 1012 10 16 0.00 0.00
10:53 pm 22:53 Clear 73 22.8 69 20.6 87 87 Calm 29.91 1013 10 16 0.00 0.00
11:53 pm 23:53 Clear 72 22.2 69 20.6 91 91 Calm 29.91 1013 8 13 0.00 0.00

Powered by AerisWeather